Location: Saint Peter Port
(49.4500°N, 2.5330°W)
Time: 18:11:52
(UTC+00:00)

Cosmos 2242 Rocket - Visible Passes

Search period start: 28 January 2015 00:00
Search period end: 07 February 2015 00:00
Orbit: 620 x 652 km, 82.5° (Epoch: 28 January)

Date Brightness Start Highest point End Pass type
(mag) Time Alt. Az. Time Alt. Az. Time Alt. Az.
28 Jan 6.4 04:05:51 13° NNE 04:05:51 13° NNE 04:06:31 10° NNE visible
28 Jan 5.4 05:43:23 18° NNW 05:43:23 18° NNW 05:44:49 10° N visible
29 Jan 6.1 04:28:51 15° NNE 04:28:51 15° NNE 04:29:37 10° NNE visible
29 Jan 5.7 06:06:24 12° NNW 06:06:24 12° NNW 06:06:57 10° NNW visible
30 Jan 6.0 04:51:47 14° N 04:51:47 14° N 04:52:24 10° N visible
31 Jan 6.0 05:14:39 12° N 05:14:39 12° N 05:14:58 10° N visible
